EHI
2 10 25 35 34 30 24 14 5 1 0 0 0 0 0 0 0 0 0 0 0 0 0 0 0 0 0 0 0 0 0 0 0 0 0 0 0 0 0 0 0 0 0
16 21 34 44 41 32 24 16 6 1 0 0 0 0 0 0 0 0 0 0 0 0 0 0 0 0 0 0 0 0 0 0 0 0 0 0 0 0 0 0 0 0 0
42 37 42 52 49 37 26 17 9 2 0 0 0 0 0 0 0 0 0 0 0 0 0 0 0 0 0 0 0 0 0 0 0 0 0 0 0 0 0 0 0 0 0
53 43 45 56 55 45 33 24 14 6 2 1 0 0 0 0 0 0 0 0 0 0 0 0 0 0 0 0 0 0 0 0 0 0 0 0 0 0 0 0 0 0 0
44 40 47 59 61 54 45 35 24 12 5 2 1 0 0 0 0 0 0 0 0 0 0 0 0 0 0 0 0 0 0 0 0 0 0 0 0 0 0 0 0 0 0
34 34 44 58 62 57 51 43 31 19 9 4 1 0 0 0 0 0 0 0 0 0 0 0 0 0 0 0 0 0 0 0 0 0 0 0 0 1 1 0 0 0 0
27 27 34 47 53 51 47 41 33 23 12 5 1 0 0 0 0 0 0 0 0 0 0 0 0 0 0 0 0 0 0 0 0 0 0 0 1 3 3 1 1 0 0
19 17 20 29 35 36 35 32 28 19 11 5 1 0 0 0 0 0 0 0 0 0 0 0 0 0 0 0 0 0 1 1 0 0 0 0 2 6 6 3 2 1 0
7 7 9 12 17 19 20 20 18 12 7 5 2 0 0 0 0 1 1 1 1 0 0 0 0 0 0 0 0 0 1 2 1 0 0 0 4 10 10 6 3 1 0
1 2 3 5 6 7 8 10 9 7 7 5 3 1 0 0 0 1 2 2 2 1 1 1 1 1 0 0 0 0 1 1 1 0 0 1 6 15 16 10 5 3 2
1 1 2 3 3 3 4 4 4 5 5 4 2 1 0 0 0 1 2 3 4 3 2 2 1 1 0 0 0 0 0 0 0 0 0 2 9 17 21 17 11 7 4
5 3 3 3 2 1 2 2 2 2 2 2 1 0 0 0 0 0 1 3 4 4 3 2 1 0 0 0 0 0 0 0 0 0 1 4 10 18 23 23 18 12 8
17 14 9 5 2 1 1 1 1 1 1 0 0 0 0 0 0 0 0 1 2 1 1 1 0 0 0 0 0 0 0 0 0 0 2 8 13 17 21 22 21 17 12
40 32 21 13 8 4 3 2 1 1 1 0 0 0 0 0 0 0 0 0 0 0 0 0 0 0 0 0 0 0 0 0 0 0 3 10 14 17 18 17 16 15 13
60 49 33 22 15 9 6 3 2 2 2 1 1 0 0 0 0 0 0 0 0 0 0 0 0 0 0 0 0 0 0 0 0 0 2 7 12 14 15 13 11 9 8
63 52 35 24 16 10 6 3 2 2 1 1 1 1 1 0 0 0 0 0 0 0 0 0 0 0 0 0 0 0 0 1 0 0 0 3 7 10 11 11 8 6 5
54 44 29 19 13 8 4 2 1 1 0 1 1 1 1 0 0 0 0 0 0 0 0 0 0 0 0 0 0 0 0 0 0 0 0 1 3 5 7 9 8 6 5
38 32 22 13 8 5 2 0 0 0 0 0 0 1 1 0 0 0 0 0 0 0 0 0 0 0 0 0 0 0 0 0 0 0 0 0 0 2 4 6 7 6 6
24 21 15 9 4 2 0 0 0 0 0 0 0 0 0 0 0 0 0 0 0 0 0 0 0 0 0 0 0 0 0 0 0 0 0 0 0 0 1 2 2 3 3
12 12 10 6 3 1 0 0 0 0 0 0 0 0 0 0 0 0 0 0 0 0 0 0 0 0 0 0 0 0 0 0 0 0 0 0 0 0 0 0 0 1 1
6 7 7 4 2 1 0 0 0 0 0 0 0 0 0 0 0 0 0 0 0 0 0 0 0 0 0 0 0 0 0 0 0 0 0 0 0 0 0 0 0 0 0
4 5 4 3 1 0 0 0 0 0 0 0 0 0 0 0 0 0 0 0 0 0 0 0 0 0 0 0 0 0 0 0 0 0 0 0 0 0 0 0 0 0 0
4 3 2 1 0 0 0 0 0 0 0 0 0 0 0 0 0 0 0 0 0 0 0 0 0 0 0 0 0 0 0 0 0 0 0 0 0 0 0 0 0 0 0
4 3 1 1 0 0 0 0 0 0 0 0 0 0 0 0 0 0 0 0 0 0 0 0 0 0 0 0 0 0 0 0 0 0 0 0 0 0 0 0 0 0 0
6 5 3 2 1 0 0 0 0 0 0 0 0 0 0 0 0 0 0 0 0 0 0 0 0 0 0 0 0 0 0 0 0 0 0 0 0 0 0 0 0 0 0
7 7 6 3 1 0 0 0 0 0 0 0 0 0 0 0 0 0 0 0 0 0 0 0 0 0 0 0 0 0 0 0 0 0 0 0 0 0 0 0 0 0 0
Wind_Speed
7 7 14 15 16 16 16 16 16 16 16 16 16 16 16 15 15 14 14 13 12 12 11 11 11 11 11 11 11 10 10 10 10 11 12 13 13 14 15 16 15 11 16
11 10 14 15 15 16 16 16 15 15 15 15 15 15 14 14 13 13 12 12 11 11 11 10 10 10 10 10 10 10 9 9 10 11 12 12 13 13 15 15 14 10 16
14 10 13 15 15 15 15 15 15 15 15 15 14 14 13 13 12 12 11 11 11 10 10 10 9 9 9 9 8 8 8 7 8 9 10 5 7 13 14 15 15 15 15
14 9 12 16 15 16 15 15 15 15 15 14 14 13 13 12 11 11 10 10 10 9 9 9 9 8 8 7 7 6 6 6 6 7 4 3 5 13 15 15 15 15 15
12 9 12 17 16 16 15 15 15 15 14 14 14 13 12 11 10 10 9 9 9 8 8 8 8 7 7 6 5 5 5 4 4 4 4 4 5 12 15 15 14 14 14
11 8 12 17 17 16 16 15 15 15 14 13 13 12 11 10 10 9 8 8 8 7 7 7 7 6 6 5 4 3 3 4 3 3 4 5 5 12 14 14 14 14 14
11 8 11 17 17 16 16 15 15 14 13 12 11 10 9 9 8 8 8 7 7 6 6 6 6 5 5 4 3 2 2 3 2 3 5 5 6 12 14 14 13 13 13
13 9 10 16 17 16 16 15 14 14 13 12 11 10 8 7 7 6 6 6 6 6 6 5 5 5 4 4 3 1 1 2 3 3 4 4 9 12 14 13 13 13 13
12 10 7 8 11 15 15 14 13 13 12 11 9 8 7 6 6 5 4 5 5 5 5 6 6 6 5 5 4 3 2 1 2 2 5 4 10 13 14 14 14 13 13
9 8 7 6 6 6 8 13 13 12 11 9 8 7 5 4 4 4 4 4 4 4 5 5 6 6 6 6 6 5 4 1 1 1 2 5 11 14 15 15 14 14 13
9 6 7 7 6 6 6 9 9 10 9 7 5 5 4 2 1 1 2 3 3 3 4 4 5 5 5 6 6 6 4 1 1 1 3 7 12 14 15 15 15 15 14
9 7 6 7 7 6 6 5 3 3 4 3 2 3 3 2 2 3 2 1 1 1 1 2 3 4 3 2 3 4 2 2 2 2 3 8 12 14 15 15 15 15 15
9 8 7 7 7 5 4 4 3 2 3 3 3 4 3 3 3 3 1 2 2 1 1 1 1 1 1 1 1 1 2 1 1 1 2 6 12 14 15 15 15 15 16
10 9 7 8 7 5 5 4 3 3 3 3 3 4 4 3 3 2 1 2 1 1 1 1 0 1 1 1 2 2 2 2 2 2 2 7 11 14 15 15 16 16 16
10 9 7 8 8 6 5 4 5 4 3 4 3 3 4 3 2 2 2 2 2 1 1 1 1 1 1 2 1 2 2 3 3 3 2 8 11 13 15 16 17 17 17
10 8 7 7 7 6 5 5 4 4 4 4 3 4 4 3 3 2 2 2 2 1 1 1 1 1 1 1 2 2 2 2 2 3 4 6 11 13 15 16 17 17 18
9 8 8 7 6 6 6 5 4 4 4 4 3 4 4 3 3 3 2 2 2 2 2 2 2 2 2 2 2 2 2 2 2 3 4 4 5 12 15 16 17 17 18
8 8 7 8 7 6 5 5 4 4 4 4 3 3 4 4 4 3 3 2 2 3 3 2 2 2 2 2 2 3 2 2 3 4 4 4 4 5 9 15 16 17 18
8 7 7 7 6 6 5 4 4 4 4 3 3 3 3 4 4 4 3 2 3 3 3 3 2 1 2 3 3 3 3 3 4 4 4 4 5 5 5 9 15 17 19
7 7 8 7 6 5 4 4 3 4 3 2 3 3 4 3 4 4 3 3 4 3 3 3 3 2 1 2 3 4 3 3 3 3 4 3 4 5 6 6 6 10 17
7 7 7 6 5 4 3 3 3 2 2 2 2 3 4 3 4 4 3 3 3 3 3 3 2 3 3 3 3 4 4 3 3 2 3 2 2 3 4 5 5 5 6
8 7 7 7 6 5 3 3 2 2 2 2 2 2 3 3 4 4 3 2 3 3 4 4 3 2 3 3 2 2 4 6 4 4 3 3 2 2 2 4 4 4 4
8 8 8 7 6 5 4 3 3 3 3 2 1 1 2 3 3 3 4 3 3 2 2 2 2 3 2 3 2 2 2 2 4 4 4 4 4 3 2 2 3 3 4
9 8 7 7 6 5 5 5 4 3 2 1 2 1 1 2 2 3 4 3 3 2 2 1 2 1 2 2 2 1 1 2 1 4 4 4 5 4 4 3 3 2 3
10 9 7 7 6 6 6 6 6 4 3 2 1 1 0 1 1 3 4 3 2 1 1 1 1 1 1 0 1 1 2 1 1 1 3 5 5 4 3 3 3 3 3
9 9 8 8 7 6 6 6 7 6 5 3 2 1 1 1 1 2 4 3 3 2 1 1 0 0 0 0 1 1 0 0 1 0 2 3 4 4 4 3 3 3 3
Wind_Direction
146 147 138 133 130 127 124 121 118 115 114 113 112 111 110 110 109 108 108 107 106 104 101 98 96 94 93 94 96 96 97 101 105 107 110 112 114 116 116 115 113 113 116
142 141 132 130 130 129 127 125 123 121 120 119 119 118 117 115 114 113 113 111 109 106 104 101 99 98 96 96 95 95 95 98 102 105 107 111 115 118 117 117 117 122 120
131 131 127 127 129 130 130 128 127 126 125 124 124 124 123 122 120 119 118 116 113 110 108 106 104 102 98 96 94 94 94 95 99 102 100 94 109 119 120 121 122 122 121
128 127 127 126 127 128 129 129 128 128 128 128 128 129 129 128 127 125 124 122 119 117 114 112 110 108 104 99 93 89 86 83 94 107 110 116 113 120 123 124 125 124 123
124 125 130 126 126 127 127 127 127 128 129 130 131 132 132 131 131 129 129 129 126 125 124 121 118 115 113 107 97 83 71 61 66 92 122 119 116 127 127 129 129 128 128
124 126 132 128 127 127 127 127 127 128 129 131 132 134 136 137 136 135 135 133 132 132 132 130 128 126 125 119 108 85 61 46 55 89 127 134 133 137 135 135 134 133 132
131 132 133 131 131 130 130 130 129 130 131 133 134 136 138 139 140 142 143 142 143 143 142 145 142 141 141 142 136 100 45 31 77 111 137 146 148 144 143 141 140 139 138
137 136 137 137 136 134 133 133 133 134 135 136 137 139 141 143 146 150 153 156 158 158 159 162 166 167 169 175 182 188 353 15 73 103 141 159 158 151 150 148 147 146 145
138 138 137 140 139 139 137 137 137 137 138 138 140 142 146 152 157 164 169 171 172 171 175 178 185 191 196 201 212 223 251 330 83 127 161 166 166 160 159 157 156 155 154
138 141 139 134 131 133 136 140 141 141 140 139 139 139 137 142 156 170 183 188 186 188 191 194 198 202 207 213 225 233 240 266 117 164 163 181 178 170 168 166 165 164 163
144 147 143 138 135 135 140 145 142 140 138 134 131 128 117 94 93 123 151 175 187 197 205 208 212 213 216 221 233 244 244 193 173 190 175 192 185 180 174 173 172 171 171
154 156 151 148 147 148 146 128 123 117 116 111 105 95 84 81 75 81 68 115 169 208 236 230 234 231 225 221 245 252 231 213 197 204 193 194 190 190 183 179 179 179 178
148 142 141 145 148 141 126 129 114 105 106 101 97 90 78 70 59 53 30 359 352 360 10 344 337 278 237 206 220 235 228 220 213 208 210 205 194 195 193 187 185 186 185
130 125 127 129 128 126 123 120 118 114 111 107 93 88 81 71 58 46 34 11 10 9 15 20 346 287 269 239 224 223 223 209 216 206 221 213 205 199 198 195 194 192 192
123 122 124 122 121 122 118 123 120 121 120 115 101 94 95 86 67 44 28 21 15 22 24 15 342 288 281 282 265 233 226 219 214 203 208 217 213 206 202 204 202 200 199
126 126 124 122 123 121 118 118 123 125 117 109 108 110 104 99 84 60 38 28 15 5 357 13 3 329 315 310 300 278 246 234 221 207 208 220 220 213 210 209 210 209 206
131 129 128 127 119 115 115 121 125 125 119 117 120 111 104 98 82 72 57 31 2 359 7 21 20 28 13 360 330 309 282 261 248 237 223 215 218 219 215 214 215 214 212
137 137 138 129 121 119 120 120 123 124 122 126 123 110 104 98 87 72 58 25 8 19 26 35 31 23 7 355 329 310 305 290 273 258 235 222 214 220 222 221 220 218 217
147 140 129 126 127 125 122 115 113 115 120 134 129 120 112 105 92 82 65 36 29 35 28 24 35 30 3 343 315 307 309 298 285 280 258 231 218 216 216 227 225 223 223
145 138 133 131 130 122 108 94 87 91 108 133 138 136 126 114 95 86 73 44 44 42 22 15 15 13 4 335 328 330 303 293 292 282 272 250 224 218 214 220 225 229 228
145 141 141 138 143 131 115 112 112 119 126 141 159 148 141 126 104 97 84 61 52 48 28 16 16 11 358 358 12 340 326 325 328 315 307 283 253 236 219 215 214 216 228
160 156 151 152 151 143 138 143 147 141 134 143 148 141 153 140 132 127 114 96 68 51 31 28 34 25 355 17 38 17 349 342 339 344 350 9 348 318 270 244 221 214 220
168 170 167 165 157 153 145 119 88 70 58 60 90 151 190 168 156 143 136 122 93 78 50 35 49 64 13 351 36 88 60 318 315 326 352 7 359 351 322 298 253 227 220
180 177 171 167 162 157 142 130 129 129 133 166 175 194 224 201 185 166 147 133 115 97 72 37 74 75 72 6 352 29 171 198 271 321 326 344 347 349 340 335 324 287 244
181 178 173 164 164 161 149 140 131 133 151 156 129 138 272 306 242 170 147 139 132 121 116 78 57 55 88 119 326 335 351 9 94 155 309 325 333 329 331 323 315 301 272
180 176 170 164 168 164 154 147 146 151 157 150 144 140 334 344 29 139 145 150 158 162 172 183 187 355 293 255 247 218 179 280 307 288 277 304 311 308 317 321 325 311 289